Last 48 Hours

Smith Lane (Kelseyville-South)

Hourly Data | America/Los_Angeles
as of 9/5/26 5:18 PM PDT
Date & Time Temp (°F) WindChill (°F) RH (%) Dew Pt (°F) Wet Bulb (°F) Wind Dir (°) Wind Spd (mph) Wind Gust (mph) Wind Gst Dir (°) Leaf Wet (mins) Latest Rain (In) Daily Rain (In) Daily Min Temp (°F) Daily Max Temp (°F) Daily Leaf Wet (Hrs)
9/5/26 - 1700 79.3 - 34 47.0 58.6 SW | 214 5.9 13.8 S | 178 60.0 0.00 0.00 39.1 80.9 16.0
9/5/26 - 1600 79.7 - 27 43.2 57.5 SSW | 211 4.7 13.8 WSW | 241 60.0 0.00 0.00 39.1 80.9 15.0
9/5/26 - 1500 79.1 - 26 43.0 57.5 NW | 320 3.5 14.4 WSW | 246 60.0 0.00 0.00 39.1 80.9 14.0
9/5/26 - 1400 77.1 - 34 45.5 57.5 ESE | 107 2.4 7.1 SE | 127 60.0 0.00 0.00 39.1 78.8 13.0
9/5/26 - 1300 75.7 - 33 45.9 58.0 NNE | 21 3.2 9.3 SE | 124 60.0 0.00 0.00 39.1 77.3 12.0
9/5/26 - 1200 72.8 - 35 45.0 56.8 N | 0 3.2 8.8 N | 0 60.0 0.00 0.00 39.1 74.4 11.0
9/5/26 - 1100 69.1 - 47 50.4 59.0 NNE | 33 1.9 7.7 NE | 38 60.0 0.00 0.00 39.1 71.8 10.0
9/5/26 - 1000 63.6 - 58 50.7 57.4 NNE | 20 1.4 6.5 NNE | 26 60.0 0.00 0.00 39.1 65.8 9.0
9/5/26 - 0900 56.2 - 67 50.8 56.0 N | 359 0.2 4.3 ENE | 60 60.0 0.00 0.00 39.1 61.7 8.0
9/5/26 - 0800 43.5 - 97 48.4 49.5 NW | 306 0.0 2.1 NW | 306 60.0 0.00 0.00 39.1 49.2 7.0
9/5/26 - 0700 39.4 - 96 39.1 39.8 S | 171 0.1 2.1 SSW | 192 60.0 0.00 0.00 39.1 47.0 6.0
9/5/26 - 0600 41.0 - 92 37.7 39.0 ESE | 107 0.1 2.1 ESE | 110 60.0 0.00 0.00 39.8 47.0 5.0
9/5/26 - 0500 41.2 - 96 40.7 41.6 ESE | 120 0.3 3.2 SE | 125 60.0 0.00 0.00 40.4 47.0 4.0
9/5/26 - 0400 42.3 - 91 39.0 40.5 N | 0 0.0 0.0 ESE | 118 60.0 0.00 0.00 41.4 47.0 3.0
9/5/26 - 0300 44.0 - 93 41.4 42.7 ESE | 118 0.3 2.6 ESE | 120 60.0 0.00 0.00 43.4 47.0 2.0
9/5/26 - 0200 45.5 - 92 42.3 43.8 ESE | 116 0.6 2.6 E | 101 60.0 0.00 0.00 44.4 47.0 1.0
9/5/26 - 0100 47.0 46.2 92 44.8 46.4 ESE | 115 0.7 5.4 E | 91 60.0 0.00 0.01 39.0 77.4 24.0
9/5/26 - 0000 49.2 - 88 44.4 46.6 ESE | 121 0.9 3.2 ESE | 118 60.0 0.00 0.01 39.0 77.4 23.0
9/4/26 - 2300 51.2 - 85 45.9 48.4 SE | 136 1.4 3.2 SE | 133 60.0 0.00 0.01 39.0 77.4 22.0
9/4/26 - 2200 53.2 - 84 47.3 50.2 S | 175 0.9 3.2 S | 169 60.0 0.00 0.01 39.0 77.4 21.0
9/4/26 - 2100 58.6 - 71 46.2 50.9 SSW | 206 1.0 7.1 SW | 223 60.0 0.00 0.01 39.0 77.4 20.0
9/4/26 - 2000 65.4 - 63 48.3 54.4 WNW | 295 2.8 9.3 WNW | 293 60.0 0.00 0.01 39.0 77.4 19.0
9/4/26 - 1900 72.1 - 46 47.6 56.7 W | 275 5.8 12.1 W | 266 60.0 0.00 0.01 39.0 77.4 18.0
9/4/26 - 1800 75.6 - 32 42.2 55.5 SW | 233 4.1 11.0 S | 184 60.0 0.00 0.01 39.0 77.4 17.0
9/4/26 - 1700 76.4 - 28 41.0 55.8 SW | 224 3.1 9.3 SSW | 199 60.0 0.00 0.01 39.0 77.4 16.0
9/4/26 - 1600 75.9 - 28 40.4 55.2 WSW | 243 4.9 13.3 WNW | 302 60.0 0.00 0.01 39.0 76.8 15.0
9/4/26 - 1500 74.7 - 28 40.7 55.3 SW | 228 4.2 12.1 W | 270 60.0 0.00 0.01 39.0 76.4 14.0
9/4/26 - 1400 72.5 - 30 40.1 54.3 SSW | 195 3.7 9.9 S | 184 60.0 0.00 0.01 39.0 73.6 13.0
9/4/26 - 1300 70.8 - 40 46.4 56.8 NNW | 340 3.9 11.0 S | 188 60.0 0.00 0.01 39.0 72.5 12.0
9/4/26 - 1200 67.9 - 39 43.1 54.5 NNE | 15 3.4 8.8 NNE | 19 60.0 0.00 0.01 39.0 69.4 11.0
9/4/26 - 1100 63.8 - 50 46.5 55.1 NNE | 19 2.2 8.8 N | 0 60.0 0.00 0.01 39.0 65.9 10.0
9/4/26 - 1000 59.3 - 68 50.8 55.9 SSE | 147 0.7 4.9 SSW | 200 60.0 0.00 0.01 39.0 61.2 9.0
9/4/26 - 0900 52.4 - 82 52.2 55.4 W | 278 0.1 3.8 WSW | 251 60.0 0.00 0.01 39.0 57.5 8.0
9/4/26 - 0800 41.3 - 100 47.4 48.1 ESE | 122 0.0 2.6 SE | 124 60.0 0.00 0.01 39.0 47.5 7.0
9/4/26 - 0700 40.4 - 97 38.5 39.1 N | 0 0.0 0.0 ESE | 119 60.0 0.00 0.01 39.2 47.3 6.0
9/4/26 - 0600 42.8 - 98 40.7 41.3 SE | 142 0.1 2.6 ESE | 121 60.0 0.01 0.01 41.3 47.3 5.0
9/4/26 - 0500 43.3 - 99 43.2 43.7 ESE | 106 0.4 2.6 ESE | 106 60.0 0.00 0.00 42.8 47.3 4.0
9/4/26 - 0400 44.2 - 98 43.1 43.7 SE | 136 0.3 2.6 SE | 133 60.0 0.00 0.00 43.2 47.3 3.0
9/4/26 - 0300 45.1 - 98 44.6 45.4 ESE | 121 0.3 2.6 ESE | 113 60.0 0.00 0.00 44.6 47.3 2.0
9/4/26 - 0200 46.1 - 97 45.1 46.0 ESE | 119 0.4 2.6 ESE | 117 60.0 0.00 0.00 45.3 47.3 1.0
9/4/26 - 0100 48.5 - 96 46.2 47.3 N | 0 0.0 0.0 S | 171 60.0 0.00 0.02 47.2 70.8 24.0
9/4/26 - 0000 50.4 - 96 48.4 49.6 S | 174 0.4 2.6 SE | 142 60.0 0.00 0.02 49.2 70.8 23.0
9/3/26 - 2300 53.3 - 93 50.2 51.8 ESE | 117 0.6 3.2 ESE | 112 60.0 0.00 0.02 52.0 70.8 22.0
9/3/26 - 2200 56.2 - 92 51.8 53.8 S | 189 0.5 3.2 SSW | 192 60.0 0.00 0.02 54.2 70.8 21.0
9/3/26 - 2100 57.1 - 95 55.8 57.7 SE | 133 0.6 3.8 SE | 140 60.0 0.00 0.02 56.8 70.8 20.0
9/3/26 - 2000 57.2 - 95 55.6 57.5 W | 280 1.3 8.8 W | 274 60.0 0.00 0.02 56.8 70.8 19.0
9/3/26 - 1900 60.4 - 88 55.3 58.0 W | 262 3.2 9.9 WNW | 301 60.0 0.01 0.02 58.6 70.8 18.0
9/3/26 - 1800 59.9 - 86 55.8 58.7 S | 178 2.1 6.0 SSE | 166 60.0 0.00 0.01 58.6 70.8 17.0
9/3/26 - 1700 62.3 - 85 56.0 59.0 SW | 225 3.5 11.0 W | 281 60.0 0.01 0.01 58.6 70.8 16.0
Max 79.7 - 100 56.0 59.0 - 5.9 14.4 - 60.0 0.01 0.02 58.6 80.9 24.0
Avg 58.0 - 71 46.0 51.5 - 1.7 6.1 - 60.0 0.00 - - - -
Min 39.4 - 26 37.7 39.0 - 0.0 0.0 - 60.0 0.00 0.00 39.0 47.0 1.0
Total - - - - - - - - - - 0.03 - - - -